TimeEST,TemperatureF,Dew PointF,Humidity,Sea Level PressureIn,VisibilityMPH,Wind Direction,Wind SpeedMPH,Gust SpeedMPH,PrecipitationIn,Events,Conditions,WindDirDegrees,DateUTC
12:54 AM,42.1,39.9,92,30.25,10.0,Calm,Calm,-,N/A,,Clear,0,2014-01-05 05:54:00
1:54 AM,41.0,37.9,89,30.26,10.0,Calm,Calm,-,N/A,,Clear,0,2014-01-05 06:54:00
2:54 AM,41.0,39.0,93,30.25,10.0,Calm,Calm,-,N/A,,Clear,0,2014-01-05 07:54:00
3:54 AM,44.1,41.0,89,30.23,10.0,Calm,Calm,-,N/A,,Overcast,0,2014-01-05 08:54:00
4:54 AM,46.0,43.0,89,30.22,10.0,Calm,Calm,-,N/A,,Overcast,0,2014-01-05 09:54:00
5:54 AM,46.9,44.1,90,30.22,10.0,Calm,Calm,-,N/A,,Overcast,0,2014-01-05 10:54:00
6:54 AM,48.9,45.0,86,30.22,10.0,Calm,Calm,-,N/A,,Overcast,0,2014-01-05 11:54:00
7:54 AM,51.1,48.0,89,30.21,10.0,Calm,Calm,-,N/A,,Overcast,0,2014-01-05 12:54:00
8:54 AM,59.0,55.0,87,30.19,10.0,ESE,5.8,-,N/A,,Scattered Clouds,110,2014-01-05 13:54:00
9:54 AM,62.1,55.0,78,30.19,10.0,SE,4.6,-,N/A,,Scattered Clouds,140,2014-01-05 14:54:00
10:54 AM,64.0,57.0,78,30.15,10.0,ESE,10.4,16.1,N/A,,Mostly Cloudy,120,2014-01-05 15:54:00
11:54 AM,64.9,57.0,75,30.12,10.0,ESE,9.2,-,N/A,,Overcast,120,2014-01-05 16:54:00
12:54 PM,66.0,59.0,78,30.08,2.5,SE,5.8,16.1,0.03,Rain,Rain,140,2014-01-05 17:54:00
12:59 PM,64.4,60.8,88,30.08,4.0,SSE,6.9,16.1,0.01,Rain,Rain,160,2014-01-05 17:59:00
1:28 PM,64.4,60.8,88,30.06,2.5,ESE,3.5,-,0.07,Rain,Rain,120,2014-01-05 18:28:00
1:54 PM,64.0,62.1,93,30.04,2.5,SSE,3.5,-,0.27,Rain,Heavy Rain,150,2014-01-05 18:54:00
2:01 PM,64.4,62.6,94,30.04,1.5,SSE,5.8,-,0.06,Rain,Heavy Rain,160,2014-01-05 19:01:00
2:13 PM,64.4,62.6,94,30.03,3.0,Calm,Calm,-,0.10,Rain,Light Rain,0,2014-01-05 19:13:00
2:22 PM,64.4,62.6,94,30.03,8.0,Calm,Calm,-,0.10,,Overcast,0,2014-01-05 19:22:00
2:30 PM,64.4,62.6,94,30.03,2.5,East,3.5,-,0.12,Rain,Rain,100,2014-01-05 19:30:00
2:45 PM,64.4,62.6,94,30.03,2.5,East,3.5,-,0.15,Rain,Light Rain,100,2014-01-05 19:45:00
2:54 PM,64.0,62.1,93,30.03,7.0,South,3.5,-,0.15,Rain,Light Rain,180,2014-01-05 19:54:00
3:01 PM,64.4,62.6,94,30.03,8.0,WSW,3.5,-,0.00,Rain,Light Rain,250,2014-01-05 20:01:00
3:40 PM,64.4,62.6,94,30.02,10.0,SSE,4.6,-,0.00,,Overcast,160,2014-01-05 20:40:00
3:54 PM,64.9,63.0,93,30.02,9.0,SSE,5.8,-,0.00,,Overcast,160,2014-01-05 20:54:00
4:16 PM,64.4,62.6,94,30.02,9.0,South,8.1,-,0.00,Rain,Light Rain,180,2014-01-05 21:16:00
4:27 PM,64.4,62.6,94,30.02,9.0,South,6.9,-,0.00,Rain,Light Rain,170,2014-01-05 21:27:00
4:37 PM,64.4,62.6,94,30.01,9.0,South,8.1,-,0.00,Rain,Light Rain,170,2014-01-05 21:37:00
4:44 PM,64.4,62.6,94,30.01,9.0,SSE,6.9,-,0.00,Rain,Light Rain,160,2014-01-05 21:44:00
4:54 PM,64.9,63.0,93,30.01,10.0,South,6.9,-,0.00,,Mostly Cloudy,170,2014-01-05 21:54:00
5:04 PM,64.4,62.6,94,30.00,10.0,South,6.9,-,N/A,,Mostly Cloudy,170,2014-01-05 22:04:00
5:54 PM,64.9,62.1,90,29.99,10.0,South,6.9,-,N/A,,Scattered Clouds,170,2014-01-05 22:54:00
6:54 PM,64.9,61.0,87,29.97,10.0,South,8.1,-,N/A,,Scattered Clouds,170,2014-01-05 23:54:00
7:54 PM,64.0,61.0,90,29.97,10.0,South,6.9,-,N/A,,Scattered Clouds,180,2014-01-06 00:54:00
8:54 PM,64.0,62.1,93,29.94,10.0,SSE,5.8,-,N/A,,Mostly Cloudy,150,2014-01-06 01:54:00
9:24 PM,64.4,62.6,94,29.93,10.0,SSE,4.6,-,N/A,,Mostly Cloudy,160,2014-01-06 02:24:00
9:36 PM,64.4,62.6,94,29.93,10.0,South,4.6,-,N/A,,Overcast,170,2014-01-06 02:36:00
9:54 PM,66.0,63.0,90,29.92,10.0,South,5.8,-,N/A,,Overcast,170,2014-01-06 02:54:00
10:16 PM,66.2,62.6,88,29.91,10.0,South,5.8,-,N/A,,Overcast,180,2014-01-06 03:16:00
10:54 PM,66.0,63.0,90,29.90,10.0,SSW,5.8,-,N/A,,Overcast,210,2014-01-06 03:54:00
11:16 PM,64.4,62.6,94,29.88,10.0,SW,4.6,-,N/A,,Overcast,220,2014-01-06 04:16:00
11:46 PM,66.2,62.6,88,29.86,10.0,South,4.6,-,N/A,,Mostly Cloudy,190,2014-01-06 04:46:00
11:54 PM,64.0,62.1,93,29.86,10.0,South,4.6,-,N/A,,Scattered Clouds,190,2014-01-06 04:54:00